Location: Camoruquito
(9.9001°N, 67.3564°W)
Time: 13:03:30
(UTC+00:00)

Cosmos 1943 Rocket - Pass Details

Date: 14 April 2024
Orbit: 810 x 845 km, 71.0° (Epoch: 27 May)

Event Time Altitude Azimuth Distance (km) Brightness Sun altitude
Rises 08:10:14 0° 5° (N) 3,391 5.6 -31.8°
Reaches altitude 10° 08:13:07 10° 18° (NNE) 2,457 5.0 -31.1°
Maximum altitude 08:17:38 25° 72° (ENE) 1,653 4.3 -30.0°
Drops below altitude 10° 08:22:08 10° 125° (SE) 2,452 5.0 -29.0°
Sets 08:25:00 0° 138° (SE) 3,382 5.6 -28.3°
